[[{"header":{"parameterUnit":"m.s-1","parameterCategory":1,"la1":30.2991,"la2":30.254,"lo1":-89.0895,"lo2":-89.0444,"dy":0.0017,"dx":0.0017,"nx":28,"ny":28,"refTime":"2024-02-18T09:00:00:Z","depth":0,"parameterNumber":2,"parameterNumberName":"U-component_of_WINDS"},"data":[0,0,0,0,0,0,0,0,0,0,0,0,0,0,0,0,0,0,0,0,0,0,0,0,0,0,0,0,0,0,0,0,0,0,0,0,0,0,0,0,0,0,0,0,0,0,0,0,0,0,0,0,0,0,0,0,0,0,-0.4482,-0.4483,0,-0.457,-0.4571,-0.4572,-0.4582,-0.4581,-0.458,-0.4579,-0.4672,-0.4675,-0.4678,0,0,0,0,0,0,0,0,0,0,0,0,0,-0.4324,-0.4327,-0.4482,-0.4483,-0.4484,-0.457,-0.4571,-0.4572,-0.4582,-0.4581,-0.458,-0.4579,-0.4671,-0.4675,-0.4679,0,0,0,0,0,0,0,0,0,0,0,0,0,-0.4401,-0.4328,-0.4482,-0.4499,-0.4502,-0.457,-0.4571,-0.4573,-0.4582,-0.4581,-0.4579,-0.4578,-0.467,-0.4674,-0.4679,-0.4737,0,0,-0.4695,-0.4697,0,0,0,0,0,0,0,0,-0.4396,-0.4406,-0.4496,-0.4498,-0.4501,-0.4563,-0.455,-0.4628,-0.4582,-0.4552,-0.4579,-0.4577,-0.4637,-0.4645,-0.4664,-0.4741,-0.4745,-0.4695,-0.4698,-0.47,-0.4702,0,0,0,0,0,0,0,-0.4391,-0.4403,-0.4517,-0.4497,-0.45,-0.4503,-0.4513,-0.4564,-0.4601,-0.4554,-0.4555,-0.4565,-0.4638,-0.4659,-0.4667,-0.4747,-0.4695,-0.4699,-0.4702,-0.4704,-0.4876,-0.4877,0,0,0,0,0,0,-0.4382,-0.4398,-0.4514,-0.452,-0.4444,-0.4507,-0.4518,-0.4545,-0.46,-0.4608,-0.4566,-0.4565,-0.4652,-0.4661,-0.467,-0.4742,-0.47,-0.4705,-0.4708,-0.4874,-0.4876,-0.4878,0,0,0,0,0,0,-0.4379,-0.4392,-0.4511,-0.4459,-0.4474,-0.4511,-0.4542,-0.4547,-0.4568,-0.4609,-0.4616,-0.4581,-0.4651,-0.4663,-0.472,-0.4745,-0.4707,-0.4712,-0.4872,-0.4875,-0.4877,-0.4886,0,0,0,0,0,0,-0.4374,-0.4391,-0.4413,-0.446,-0.4477,-0.4559,-0.4543,-0.455,-0.4577,-0.4576,-0.4625,-0.4632,-0.4651,-0.4713,-0.4725,-0.4751,-0.4715,-0.487,-0.4873,-0.4876,-0.4883,-0.4888,-0.4892,0,0,0,0,0,-0.4368,-0.4412,-0.4414,-0.4428,-0.4505,-0.456,-0.4571,-0.459,-0.4578,-0.4601,-0.4628,-0.463,-0.474,-0.4718,-0.4732,-0.4761,-0.4869,-0.4873,-0.4876,-0.4881,-0.4887,-0.4892,0,0,0,0,0,0,-0.4369,-0.4419,-0.4421,-0.4482,-0.4516,-0.4562,-0.4591,-0.4596,-0.4636,-0.4634,-0.4657,-0.4668,-0.4725,-0.4748,-0.4724,-0.4819,-0.4803,-0.481,-0.4802,-0.4808,-0.4812,-0.4807,-0.472,0,0,0,0,0,-0.4376,-0.4416,-0.4457,-0.4507,-0.4524,-0.4554,-0.4579,-0.4591,-0.4629,-0.4644,-0.4675,-0.4712,-0.4754,-0.4782,-0.4824,-0.4886,-0.4897,-0.4912,-0.4916,-0.4919,-0.4926,-0.4961,-0.4968,-0.4889,-0.4889,-0.4889,0,0,-0.4392,-0.4424,-0.4448,-0.4508,-0.4536,-0.4578,-0.4567,-0.4611,-0.4643,-0.4651,-0.4707,-0.4731,-0.4773,-0.4833,-0.4861,-0.4855,-0.4949,-0.4924,-0.4926,-0.4931,-0.4965,-0.4972,-0.4979,-0.4892,-0.4891,-0.4891,0,0,-0.4441,-0.4469,-0.4513,-0.4541,-0.4584,-0.4604,-0.4614,-0.4659,-0.4674,-0.4731,-0.4738,-0.4775,-0.4848,-0.4879,-0.4904,-0.4963,-0.4967,-0.4976,-0.4999,-0.5033,-0.5039,-0.5045,-0.5067,-0.5075,-0.4981,-0.4981,-0.4981,0,-0.4456,-0.4518,-0.4536,-0.458,-0.4606,-0.4614,-0.4659,-0.4686,-0.4741,-0.4759,-0.475,-0.4842,-0.4871,-0.4938,-0.4953,-0.4972,-0.4986,-0.4971,-0.5037,-0.5042,-0.5048,-0.507,-0.5078,-0.4982,-0.4982,-0.4982,-0.4982,0,-0.4533,-0.4576,-0.4607,-0.4658,-0.4688,-0.4733,-0.4758,-0.4786,-0.4795,-0.4815,-0.4873,-0.4908,-0.4957,-0.4973,-0.4983,-0.5042,-0.5036,-0.5031,-0.5016,-0.5056,-0.5077,-0.5085,-0.4983,-0.4983,-0.4983,-0.4982,0,0,-0.4589,-0.4648,-0.4659,-0.4682,-0.4729,-0.4763,-0.4808,-0.4855,-0.4879,-0.4915,-0.4954,-0.5015,-0.5011,-0.5039,-0.5052,-0.5081,-0.5127,-0.5073,-0.5074,-0.5083,-0.5195,-0.52,-0.5209,-0.5129,-0.5131,-0.5132,-0.5192,0,-0.4645,-0.4724,-0.4741,-0.481,-0.485,-0.4857,-0.4896,-0.493,-0.495,-0.4987,-0.5009,-0.5053,-0.5043,-0.506,-0.5089,-0.5115,-0.515,-0.5111,-0.5167,-0.5169,-0.5158,-0.522,-0.5225,-0.5281,-0.52,-0.5202,-0.5203,0,-0.4722,-0.4759,-0.4832,-0.4873,-0.4891,-0.4925,-0.4969,-0.5005,-0.5042,-0.5055,-0.5086,-0.5095,-0.5142,-0.5123,-0.5189,-0.5162,-0.5185,-0.5201,-0.5204,-0.5212,-0.519,-0.5231,-0.5299,-0.5308,-0.5215,-0.5214,-0.5213,0,-0.4756,-0.4825,-0.4877,-0.4897,-0.4946,-0.497,-0.4992,-0.5028,-0.5055,-0.5093,-0.5111,-0.5155,-0.5179,-0.5213,-0.5234,-0.5217,-0.5298,-0.528,-0.5311,-0.5311,-0.533,-0.5329,-0.5404,-0.5342,-0.5342,-0.5342,-0.5341,0,-0.4819,-0.4863,-0.4894,-0.4926,-0.4976,-0.4995,-0.5044,-0.5066,-0.5098,-0.5135,-0.5143,-0.5178,-0.5203,-0.5241,-0.5258,-0.531,-0.5321,-0.5333,-0.5338,-0.5334,-0.5332,-0.5351,-0.5349,-0.5344,-0.5343,-0.5343,-0.5343,0,-0.4867,-0.4889,-0.4947,-0.4988,-0.4999,-0.5034,-0.507,-0.5102,-0.5121,-0.5168,-0.518,-0.5211,-0.5256,-0.528,-0.5337,-0.5348,-0.5408,-0.5409,-0.5395,-0.5397,-0.5427,-0.5425,-0.5519,-0.5533,-0.5459,-0.546,-0.5461,0,-0.4906,-0.4941,-0.4985,-0.501,-0.5032,-0.5072,-0.5099,-0.5118,-0.5146,-0.5191,-0.5218,-0.5263,-0.5301,-0.5374,-0.5402,-0.5446,-0.5449,-0.5479,-0.5456,-0.5451,-0.5451,-0.545,-0.5454,-0.5484,-0.5484,-0.5485,-0.5485,0,-0.4975,-0.4983,-0.5021,-0.5063,-0.5095,-0.5129,-0.5163,-0.5183,-0.5207,-0.5238,-0.5285,-0.5314,-0.5371,-0.5417,-0.5462,-0.5485,-0.549,-0.5492,-0.5502,-0.5499,-0.549,-0.5497,-0.5408,-0.549,-0.549,-0.5489,-0.5489,-0.5489,-0.5021,-0.5052,-0.5087,-0.513,-0.5157,-0.5188,-0.522,-0.5242,-0.5281,-0.5329,-0.5337,-0.5386,-0.5423,-0.5484,-0.5508,-0.5547,-0.5541,-0.5555,-0.5559,-0.5563,-0.5565,-0.5482,-0.5555,-0.5555,-0.5555,-0.5555,-0.5555,0,-0.5091,-0.5113,-0.5152,-0.5198,-0.5231,-0.523,-0.5267,-0.5296,-0.5339,-0.5372,-0.5408,-0.5461,-0.5505,-0.5535,-0.558,-0.5606,-0.5609,-0.5617,-0.5616,-0.5622,-0.5567,-0.5555,-0.5614,-0.5614,-0.5614,-0.5614,-0.5614,-0.5614,-0.5131,-0.5184,-0.5196,-0.5262,-0.5285,-0.5332,-0.5354,-0.5382,-0.5409,-0.5467,-0.5503,-0.5522,-0.5555,-0.5601,-0.5642,-0.565,-0.5666,-0.5675,-0.5683,-0.5632,-0.5626,-0.562,-0.5609,-0.5678,-0.5678,-0.5735,-0.5735,-0.5736]},{"header":{"parameterUnit":"m.s-1","parameterCategory":1,"la1":30.2991,"la2":30.254,"lo1":-89.0895,"lo2":-89.0444,"dy":0.0017,"dx":0.0017,"nx":28,"ny":28,"refTime":"2024-02-18T09:00:00:Z","depth":0,"parameterNumber":3,"parameterNumberName":"V-component_of_WINDS"},"data":[0,0,0,0,0,0,0,0,0,0,0,0,0,0,0,0,0,0,0,0,0,0,0,0,0,0,0,0,0,0,0,0,0,0,0,0,0,0,0,0,0,0,0,0,0,0,0,0,0,0,0,0,0,0,0,0,0,0,-7.7616,-7.7617,0,-7.7733,-7.7734,-7.7735,-7.7674,-7.7671,-7.7668,-7.7665,-7.7778,-7.7784,-7.7789,0,0,0,0,0,0,0,0,0,0,0,0,0,-7.7333,-7.7339,-7.7616,-7.7617,-7.7619,-7.7733,-7.7734,-7.7736,-7.7675,-7.7671,-7.7667,-7.7664,-7.7776,-7.7783,-7.779,0,0,0,0,0,0,0,0,0,0,0,0,0,-7.7453,-7.734,-7.7615,-7.7602,-7.7602,-7.7732,-7.7734,-7.7736,-7.7675,-7.7671,-7.7666,-7.7662,-7.7774,-7.7782,-7.7791,-7.7939,0,0,-7.7818,-7.7822,0,0,0,0,0,0,0,0,-7.7447,-7.7464,-7.7603,-7.7603,-7.7603,-7.7684,-7.7676,-7.7804,-7.7677,-7.7647,-7.7665,-7.766,-7.775,-7.7761,-7.7792,-7.7944,-7.7949,-7.7819,-7.7824,-7.7828,-7.783,0,0,0,0,0,0,0,-7.7438,-7.7458,-7.7662,-7.7605,-7.7605,-7.7588,-7.76,-7.77,-7.7723,-7.765,-7.7645,-7.7661,-7.7749,-7.7784,-7.7795,-7.7951,-7.7819,-7.7826,-7.7832,-7.7835,-7.8229,-7.8234,0,0,0,0,0,0,-7.7432,-7.7452,-7.7658,-7.7665,-7.7512,-7.7597,-7.761,-7.7663,-7.7722,-7.7727,-7.7664,-7.7657,-7.7771,-7.7784,-7.7798,-7.7976,-7.7828,-7.7836,-7.7841,-7.8224,-7.823,-7.8236,0,0,0,0,0,0,-7.7426,-7.7451,-7.7653,-7.7558,-7.7582,-7.7607,-7.7666,-7.7668,-7.7702,-7.7733,-7.7736,-7.7696,-7.7768,-7.7786,-7.7905,-7.7979,-7.784,-7.7848,-7.8218,-7.8226,-7.8233,-7.8332,0,0,0,0,0,0,-7.7418,-7.7449,-7.7507,-7.7559,-7.7588,-7.776,-7.7671,-7.7673,-7.7719,-7.771,-7.7764,-7.7768,-7.7766,-7.7892,-7.7914,-7.7989,-7.7855,-7.8211,-7.8222,-7.8231,-7.8322,-7.8342,-7.8359,0,0,0,0,0,-7.7408,-7.7528,-7.751,-7.7535,-7.7661,-7.7765,-7.778,-7.7777,-7.7725,-7.7782,-7.7802,-7.7766,-7.7967,-7.7905,-7.7929,-7.8007,-7.8207,-7.8219,-7.823,-7.8314,-7.8338,-7.8359,0,0,0,0,0,0,-7.7481,-7.7535,-7.7515,-7.7657,-7.7707,-7.7754,-7.7827,-7.7803,-7.7867,-7.7857,-7.7848,-7.786,-7.7984,-7.8007,-7.7937,-7.8153,-7.8079,-7.8096,-7.8134,-7.8157,-7.8176,-7.8167,-7.7862,0,0,0,0,0,-7.7514,-7.7596,-7.7638,-7.7758,-7.7785,-7.7802,-7.7847,-7.784,-7.7891,-7.7911,-7.7939,-7.7988,-7.8062,-7.8111,-7.818,-7.8325,-7.8335,-7.8391,-7.8409,-7.8424,-7.8439,-7.8517,-7.8542,-7.8274,-7.8274,-7.8274,0,0,-7.7582,-7.7622,-7.7674,-7.7774,-7.7812,-7.7896,-7.782,-7.7911,-7.7972,-7.7924,-7.8039,-7.8062,-7.8115,-7.8248,-7.8307,-7.8271,-7.8515,-7.8439,-7.8451,-7.8457,-7.8531,-7.8557,-7.8579,-7.8282,-7.828,-7.8279,0,0,-7.7749,-7.7788,-7.7893,-7.7934,-7.7993,-7.8004,-7.8029,-7.808,-7.8094,-7.821,-7.8176,-7.8247,-7.8375,-7.8415,-7.8452,-7.8635,-7.8604,-7.8657,-7.8754,-7.883,-7.8851,-7.887,-7.8935,-7.8959,-7.8672,-7.8672,-7.8672,0,-7.7826,-7.7953,-7.7949,-7.8044,-7.8089,-7.8052,-7.8157,-7.8196,-7.8274,-7.8305,-7.8263,-7.8423,-7.8457,-7.8598,-7.8643,-7.8674,-7.8702,-7.8651,-7.8849,-7.8868,-7.8885,-7.8947,-7.8972,-7.8678,-7.8678,-7.8677,-7.8676,0,-7.8044,-7.8132,-7.8209,-7.829,-7.8343,-7.8442,-7.8452,-7.8506,-7.8495,-7.8509,-7.8627,-7.8666,-7.8743,-7.8776,-7.8765,-7.8916,-7.8892,-7.885,-7.8775,-7.8917,-7.8975,-7.8999,-7.8687,-7.8685,-7.8683,-7.8682,0,0,-7.826,-7.8338,-7.8367,-7.8403,-7.8466,-7.8533,-7.863,-7.8708,-7.8755,-7.881,-7.889,-7.9,-7.8962,-7.9004,-7.8996,-7.9064,-7.9206,-7.9013,-7.9014,-7.9048,-7.9376,-7.9407,-7.9435,-7.9186,-7.9191,-7.9195,-7.9371,0,-7.8432,-7.8606,-7.8606,-7.8764,-7.8845,-7.8811,-7.8896,-7.8943,-7.8959,-7.9028,-7.9044,-7.9123,-7.9066,-7.9091,-7.9156,-7.9176,-7.9272,-7.9163,-7.926,-7.9263,-7.9249,-7.9465,-7.9499,-7.9664,-7.9394,-7.9398,-7.9401,0,-7.8656,-7.8722,-7.889,-7.8942,-7.8976,-7.9053,-7.9124,-7.9191,-7.9243,-7.925,-7.9298,-7.9281,-7.9377,-7.93,-7.9432,-7.9358,-7.9397,-7.9413,-7.9419,-7.9428,-7.9341,-7.9481,-7.9716,-7.9741,-7.9436,-7.9433,-7.9431,0,-7.8798,-7.8928,-7.9045,-7.9077,-7.9141,-7.9195,-7.9224,-7.9272,-7.9319,-7.938,-7.9411,-7.9482,-7.9521,-7.9576,-7.9577,-7.952,-7.9711,-7.9633,-7.9719,-7.9719,-7.9761,-7.9758,-8.0007,-7.9786,-7.9785,-7.9785,-7.9784,0,-7.899,-7.9094,-7.911,-7.9182,-7.9298,-7.9296,-7.9409,-7.9432,-7.9475,-7.955,-7.9523,-7.9593,-7.9591,-7.9662,-7.9663,-7.9773,-7.9791,-7.9798,-7.9797,-7.9801,-7.98,-7.9827,-7.9815,-7.9791,-7.979,-7.9789,-7.9788,0,-7.9168,-7.9183,-7.9309,-7.936,-7.9375,-7.9458,-7.95,-7.9568,-7.9582,-7.9677,-7.9699,-7.972,-7.9802,-7.9809,-7.9903,-7.9904,-8.0037,-8.0023,-8.0021,-8.0018,-8.0104,-8.0096,-8.0378,-8.0415,-8.017,-8.0172,-8.0174,0,-7.929,-7.937,-7.943,-7.948,-7.9513,-7.9592,-7.9641,-7.9641,-7.9693,-7.9758,-7.9818,-7.9898,-7.9962,-8.0094,-8.0117,-8.0188,-8.0176,-8.0271,-8.0187,-8.0188,-8.0178,-8.0174,-8.0182,-8.0287,-8.029,-8.0292,-8.0293,0,-7.9505,-7.9509,-7.9582,-7.9658,-7.9718,-7.9776,-7.9831,-7.9873,-7.9879,-7.9938,-8.0023,-8.0073,-8.0171,-8.025,-8.0321,-8.0347,-8.0322,-8.032,-8.0343,-8.0348,-8.0343,-8.0348,-8.0065,-8.0313,-8.0311,-8.031,-8.0309,-8.0308,-7.9659,-7.9729,-7.9783,-7.9865,-7.9907,-7.9959,-8.0026,-8.0049,-8.0121,-8.0203,-8.0197,-8.0291,-8.034,-8.0433,-8.0465,-8.0537,-8.0505,-8.0539,-8.0548,-8.0557,-8.0566,-8.0332,-8.055,-8.0549,-8.0549,-8.0548,-8.0548,0,-7.9874,-7.9907,-7.9983,-8.0062,-8.0126,-8.0099,-8.0158,-8.0213,-8.0297,-8.0346,-8.0411,-8.0508,-8.0585,-8.0614,-8.0688,-8.074,-8.073,-8.076,-8.0756,-8.0763,-8.059,-8.0562,-8.0767,-8.0767,-8.0767,-8.0767,-8.0767,-8.0767,-7.9993,-8.011,-8.012,-8.0257,-8.0288,-8.0383,-8.0419,-8.0466,-8.0506,-8.0617,-8.0682,-8.0701,-8.0742,-8.0819,-8.0888,-8.0894,-8.0923,-8.0958,-8.0959,-8.0797,-8.0775,-8.0754,-8.0728,-8.0964,-8.0964,-8.1126,-8.1127,-8.1129]}]]